Weather History for Frankfort, KY

Change the Weather History Date:

Tuesday, November 20, 2012

  Actual Average Record
Temperature  
Mean Temperature 49 °F 44 °F  
Max Temperature 64 °F 54 °F 78 °F (1985)
Min Temperature 34 °F 34 °F 10 °F (1914)
Degree Days  
Heating Degree Days 16 21  
Month to date heating degree days 435 340  
Since 1 July heating degree days 836 681  
Cooling Degree Days 0 0  
Month to date cooling degree days 0 0  
Year to date cooling degree days 1310 1154  
Moisture  
Dew Point 37 °F    
Average Humidity 62    
Maximum Humidity 89    
Minimum Humidity 34    
Precipitation  
Precipitation 0.00 in 0.13 in 2.26 in (1906)
Month to date precipitation 1.02 2.38  
Year to date precipitation 34.45 40.26  
Sea Level Pressure  
Sea Level Pressure 30.12 in    
Wind  
Wind Speed 1 mph (South)    
Max Wind Speed 7 mph    
Max Gust Speed 9 mph    
Visibility 10 miles    
Events      
T = Trace of Precipitation, MM = Missing Value Source: NWS Daily Summary

Daily Weather History Graph

Daily Weather History Graph

Search for Another Location

Airport:

Trip Planner

Search our weather history database for the weather conditions in past years. The results will help you decide how hot, cold, wet, or windy it might be!

Date:

Astronomy

Nov. 20, 2012 Rise Set
Actual Time 7:26 AM EST 5:23 PM EST
Civil Twilight 6:58 AM EST 5:52 PM EST
Nautical Twilight 6:25 AM EST 6:24 PM EST
Astronomical Twilight 5:54 AM EST 6:55 PM EST
Moon 1:03 PM EST (11/20) No Moon Set
Length of Visible Light 10h 54m
Length of Day
9h 57m
Waxing Crescent, 51% of the Moon is Illuminated
Nov 20
Waxing Crescent
Nov 28
Full
Dec 6
Last Quarter
Dec 13
New
Dec 20
First Quarter

Hourly Weather History & Observations

Time (EST) Temp. Dew Point Humidity Pressure Visibility Wind Dir Wind Speed Gust Speed Precip Events Conditions
12:53 AM 41.0 °F 34.0 °F 76% 30.18 in 10.0 mi Calm Calm - N/A   Clear
1:53 AM 41.0 °F 35.1 °F 79% 30.17 in 10.0 mi Calm Calm - N/A   Clear
3:53 AM 39.9 °F 35.1 °F 83% 30.16 in 10.0 mi Calm Calm - N/A   Overcast
4:53 AM 37.0 °F 34.0 °F 89% 30.16 in 10.0 mi Calm Calm - N/A   Mostly Cloudy
5:53 AM 37.0 °F 33.1 °F 86% 30.15 in 10.0 mi Calm Calm - N/A   Clear
6:53 AM 36.0 °F 32.0 °F 86% 30.15 in 10.0 mi Calm Calm - N/A   Scattered Clouds
7:53 AM 37.0 °F 34.0 °F 89% 30.16 in 10.0 mi Calm Calm - N/A   Overcast
8:53 AM 42.1 °F 36.0 °F 79% 30.17 in 9.0 mi Calm Calm - N/A   Clear
9:53 AM 51.1 °F 37.0 °F 59% 30.16 in 10.0 mi Calm Calm - N/A   Mostly Cloudy
10:53 AM 57.0 °F 35.1 °F 44% 30.16 in 10.0 mi ESE 3.5 mph - N/A   Scattered Clouds
11:53 AM 61.0 °F 35.1 °F 38% 30.13 in 10.0 mi Calm Calm - N/A   Clear
12:53 PM 64.0 °F 35.1 °F 34% 30.10 in 10.0 mi Calm Calm - N/A   Partly Cloudy
1:53 PM 63.0 °F 36.0 °F 37% 30.08 in 10.0 mi South 4.6 mph - N/A   Overcast
2:53 PM 63.0 °F 36.0 °F 37% 30.06 in 10.0 mi Calm Calm - N/A   Overcast
3:53 PM 62.1 °F 37.0 °F 39% 30.06 in 10.0 mi SW 3.5 mph - N/A   Overcast
4:53 PM 60.1 °F 39.9 °F 47% 30.06 in 10.0 mi Calm Calm - N/A   Overcast
5:53 PM 57.0 °F 39.9 °F 53% 30.07 in 10.0 mi Calm Calm - N/A   Overcast
6:53 PM 55.0 °F 41.0 °F 59% 30.09 in 10.0 mi Calm Calm - N/A   Overcast
7:53 PM 55.9 °F 39.9 °F 55% 30.10 in 10.0 mi Calm Calm - N/A   Overcast
8:53 PM 54.0 °F 42.1 °F 64% 30.11 in 10.0 mi Calm Calm - N/A   Overcast
9:53 PM 52.0 °F 42.1 °F 69% 30.11 in 10.0 mi Calm Calm - N/A   Overcast
10:53 PM 48.9 °F 41.0 °F 74% 30.11 in 10.0 mi Calm Calm - N/A   Mostly Cloudy
11:53 PM 50.0 °F 42.1 °F 74% 30.11 in 10.0 mi Calm Calm - N/A   Overcast